User: anonymous   Login
Location: Vancouver
(49.2500°N, 123.1330°W)
Time: 13:53:40
(UTC-08:00)
Language:

Iridium 21 - Orbit

View from above orbital plane
View from above orbital plane
View from above satellite
View from above satellite

Ground track
Ground track

The orbit data is extracted from the following two-line orbital elements,

1 25778U 99032B   17328.51623567 -.00000023  00000-0 -15221-4 0  9990
2 25778  86.3957 156.9967 0001828  82.1596 277.9807 14.34220928971093
Epoch (UTC): 24 November 2017 12:23:22
Eccentricity: 0.0001828
inclination: 86.3957°
perigee height: 776 km
apogee height: 779 km
right ascension of ascending node: 156.9967°
argument of perigee: 82.1596°
revolutions per day: 14.34220928
mean anomaly at epoch: 277.9807°
orbit number at epoch: 97109

The dashed part of the orbit path shows where the satellite is in the earth's shadow,  

DLR